Regional Weather Roundup
Issued by NWS Goodland, KS

Home | Current Version | Previous Version | Text Only | Print | Product List | Glossary Off
Versions: 1 2 3 4 5 6 7 8 9 10 11 12 13 14 15 16 17 18 19 20 21 22 23 24 25 26 27 28 29 30 31 32 33 34 35 36 37 38 39 40 41 42 43 44 45 46 47 48 49 50

000
ASUS43 KGLD 190159
RWRGLD

GOODLAND FORECAST AREA HOURLY WEATHER ROUNDUP
NATIONAL WEATHER SERVICE GOODLAND KS
700 PM MST THU JAN 18 2018

...OFFICIAL OBSERVATIONS...

CITY           SKY/WX    TMP DP  RH WIND       PRES   REMARKS
GOODLAND KS    MOCLDY    45  12  26 SW10      29.94F
HILL CITY KS   CLOUDY    45  14  28 SW10      29.94F
IMPERIAL NEB   CLOUDY    38  26  62 S5        29.90F
MCCOOK NEB     MOCLDY    39  25  57 SW5       29.90F
AKRON CO       MOCLDY    47  17  30 SW7       29.94F
BURLINGTON CO  MOCLDY    39  14  36 SW10      29.97F
LIMON CO       MOCLDY    28  14  55 N6        30.00F
$$

...UNOFFICIAL OBSERVATIONS...

CITY           SKY/WX    TMP DP  RH WIND       PRES   REMARKS
LENORA KS        N/A     49  32  52 S9          N/A
NORTON KS      CLEAR     39  18  41 CALM      29.91
SHARON SPRINGS   N/A     38  11  32 SW8         N/A
TRENTON NEB      N/A     42  32  68 CALM        N/A
KIT CARSON CO    N/A     41  12  30 CALM        N/A
YUMA CO        FAIR      37  14  38 SW9       29.92F
$$




USA.gov is the U.S. government's official web portal to all federal, state and local government web resources and services.